Other Surface Observations
Issued by NWS Tucson, AZ

Home | Current Version | Previous Version | Text Only | Print | Product List | Glossary On
Versions: 1 2 3 4 5 6 7 8 9 10 11 12 13 14 15 16 17 18 19 20 21 22 23 24 25 26 27 28 29 30 31 32 33 34 35 36 37 38 39 40 41 42 43 44 45 46 47 48 49 50
000
SXUS55 KTWC 302316
OSOTWC

WEATHER ROUNDUP FOR SOUTHEAST ARIZONA
NATIONAL WEATHER SERVICE TUCSON AZ
415 PM MST TUE SEP 30 2014

AZZ504>506-514-010015-
LOCATION       SKY/WX    TMP DP  RH WIND       PRES   REMARKS
TUCSON         SUNNY     87  31  13 W7        29.85F
DAVIS-MONTHAN  NOT AVBL
CHILDRENS PARK N/A       85  32  15 NW6               PIMA CO DEQ
ALVERNON/22ND  N/A      N/A N/A N/A N/A               PIMA CO DEQ
CHERRY/GLENN   N/A      N/A N/A N/A N/A               PIMA CO DEQ
TANGERINE      N/A       86 N/A N/A W4                PIMA CO DEQ
CONTL RANCH    N/A       87  34  15 N6                PIMA CO DEQ
GRANT/1ST      N/A       86  33  15 N4                PIMA CO DEQ
CRAYCROFT/22ND N/A      N/A N/A N/A N/A               PIMA CO DEQ
GOLFLINKS/KOLB N/A       85  34  16 NW5               PIMA CO DEQ
AJO/12TH       N/A       87  32  14 NW2               PIMA CO DEQ
SAGUARO EAST   N/A      N/A N/A N/A N/A               PIMA CO DEQ
FAIRGROUNDS    N/A       85 N/A N/A NW7               PIMA CO DEQ
SAGUARO        N/A       88  35  15 SW7G17            *SABINO CYN
SAN CARLOS     N/A       86  38  18 SW3G10            *SAN CARLOS
GREEN VALLEY   N/A       86  35  16 NE5               PIMA CO DEQ
HORSE CAMP CYN N/A       80  31  17 W13G23            *ARAVAIPA CYN
RINCON MTNS    N/A       66  26  22 SW3G12            *NR MANNING CAMP
$$

AZZ509>511-010015-
LOCATION       SKY/WX    TMP DP  RH WIND       PRES   REMARKS
SAFFORD        SUNNY     83  33  16 W9        29.83F
STRAY HORSE    N/A       65  26  23 W11G22            *
TRAIL CABIN    N/A       71  27  19 W7G13             *N OF GRANVILLE
BLACK HILLS    N/A       84  28  13 NW9G17            *N OF FT THOMAS
DRY LAKE       N/A       67  32  27 W5G10             *NATANES MTNS
NOON CREEK     N/A       76  39  26 NE4G10            *PINALENO MTNS
COLUMBINE      N/A       57  30  36 S8G16             *PINALENO MTNS
GUTHRIE        N/A       70  28  21 W8G19             *SW OF GUTHRIE
$$

AZZ502-503-513-010015-
LOCATION       SKY/WX    TMP DP  RH WIND       PRES   REMARKS
NOGALES        SUNNY     81  37  20 W8        29.92S
SELLS          N/A       87  37  17 W5G14             *
SASABE         N/A       83  34  17 W11G18            *ALTAR VLY
HOPKINS        N/A       72  40  31 W9G17             *SANTA RITA MTNS
CARR CYN       N/A       80  33  18 SE2               *W OF HEREFORD
$$

AZZ507-508-512-010015-
LOCATION       SKY/WX    TMP DP  RH WIND       PRES   REMARKS
SIERRA VISTA   SUNNY     79  34  19 W12G22    29.95S
DOUGLAS        SUNNY     85  35  16 SW14      29.90F
EMPIRE MTNS    N/A       79  30  17 W12G20            *LAS CIENEGAS NCA
MULESHOE RANCH N/A       80  27  14 W9G18             *PRESERVE
HEADQUARTERS   N/A       77  36  23 W7G19             *CHIRICAHUA MTNS
$$

.............................NOTES.............................
THIS IS AN AUTOMATED COLLECTIVE WITH MINIMAL QUALITY CONTROL.
PIMA CO DEQ SITES HAVE NONSTANDARD WIND SENSOR HEIGHTS.
PIMA CO DEQ SITES DO NOT REPORT WIND GUSTS.
* INDICATES WIND SENSORS LOCATED AT 20 FEET INSTEAD OF 33 FEET.
..............................KEY..............................
SKY/WX - SKY CONDITION/WEATHER
TMP    - TEMPERATURE IN FAHRENHEIT
DP     - DEWPOINT IN FAHRENHEIT
RH     - RELATIVE HUMIDITY IN PERCENT
WIND   - DIRECTION AND SPEED IN MILES PER HOUR (MPH)
VRB    - VARIABLE WIND DIRECTION
PRES   - MEAN SEA LEVEL PRESSURE IN INCHES OF MERCURY
         F - FALLING PRESSURE   R - RISING PRESSURE
         S - STEADY PRESSURE
VSB    - VISIBILITY IN MILES
HX     - HEAT INDEX IN FAHRENHEIT
WCI    - WIND CHILL INDEX IN FAHRENHEIT
N/A    - NOT AVAILABLE
AFB    - AIR FORCE BASE
         DAVIS-MONTHAN IS DAVIS-MONTHAN AIR FORCE BASE
CYN    - CANYON
MTNS   - MOUNTAINS
NCA    - NATIONAL CONSERVATION AREA
NR     - NEAR
VLY    - VALLEY
CONTL  - CONTINENTAL
PIMA CO DEQ - PIMA COUNTY DEPT OF ENVIRONMENTAL QUALITY



USA.gov is the U.S. government's official web portal to all federal, state and local government web resources and services.